Current Version              Previous Version:    01  02  03  04  05  06  07  08  09  10  11  12  13  14  15  16  17  18  19  20  21  22  23  24  25  26  27  28  29  30  
   31  32  33  34  35  36  37  38  39  40  41  42  43  44  45  46  47  48  49  50  51  52  53  54  55  56  57  58  59  60  

[Printable]
544
ASUS44 KFWD 021510
RWRTX
NORTH TEXAS HOURLY WEATHER ROUNDUP
NATIONAL WEATHER SERVICE FORT WORTH TX
1000 AM CDT TUE SEP 02 2014

NOTE: "FAIR" INDICATES FEW OR NO CLOUDS BELOW 12,000 FEET WITH NO
SIGNIFICANT WEATHER AND/OR OBSTRUCTIONS TO VISIBILITY.

TXZ118-119-021600-
DALLAS/FORT WORTH METROPLEX

CITY           SKY/WX    TMP DP  RH WIND       PRES   REMARKS
DFW AIRPORT    MOSUNNY   83  72  69 S21       29.96S
DALLAS LOVE    PTSUNNY   84  72  67 SW12      29.97S
FTW MEACHAM    MOSUNNY   84  71  65 S15G23    29.96R
DAL-EXECUTIVE  PTSUNNY   85  72  65 S8G16     29.98R HX  91
FTW-ALLIANCE   MOSUNNY   84  71  65 S14G22    29.96R
FTW-NAS-JRB    MOSUNNY   87  70  56 S10G22    30.00R HX  92
FTW-SPINKS     MOSUNNY   84  72  65 S13G20    29.98R
ARLINGTON      SUNNY     83  72  69 S8G22     29.97R
GRAND PRAIRIE  MOSUNNY   82  72  69 S8G18     29.99R
ADDISON        PTSUNNY   82  72  69 S13G21    29.98S
MESQUITE         N/A    N/A N/A N/A S9        29.99R
LANCASTER      PTSUNNY   85  72  65 S12G17    29.99R HX  91
$$

TXZ091>094-102>105-117-120-121-131>134-021600-
NORTH CENTRAL TEXAS

CITY           SKY/WX    TMP DP  RH WIND       PRES   REMARKS
SHRMAN/DENISON SUNNY     85  70  60 S15G21    29.99R
GAINESVILLE    SUNNY     83  71  68 SE14      29.98S
BOWIE          SUNNY     83  71  66 S13G18    29.96R
BRIDGEPORT     SUNNY     84  67  57 SW9G16    29.97S
DECATUR        SUNNY     82  69  64 S10       29.97R
DENTON         SUNNY     84  71  65 S18       29.96R
MCKINNEY       MOSUNNY   84  72  67 S17       29.98R
GREENVILLE     CLOUDY    82  72  69 S10       30.00R
ROCKWALL       PTSUNNY   82  73  73 S14G22    29.98R
TERRELL        PTSUNNY   85  75  72 SW13      29.99R HX  93
WAXAHACHIE     PTSUNNY   83  71  66 S13       29.99R
CLEBURNE       MOSUNNY   84  75  74 S9G16     29.99S HX  92
GRANBURY       SUNNY     86  70  59 S12G17    29.97S HX  90
$$

TXZ083>090-098>101-113>116-127>130-139>142-154-155-021600-
WESTERN NORTH TEXAS

CITY           SKY/WX    TMP DP  RH WIND       PRES   REMARKS
WICHITA FALLS  MOSUNNY   87  70  56 S16       29.91R HX  92
WF-KICKAPOO    SUNNY     86  67  52 SW12G18   29.93S
VERNON           N/A     87  67  50 SW5       29.94R HX  90
ABILENE        SUNNY     82  69  64 SW17G26   29.95F
ABILENE-DYESS  SUNNY     83  70  65 S20       29.94S
BRECKENRIDGE   SUNNY     86  68  55 S15       29.95R HAZE
GRAHAM         SUNNY     85  68  56 S7        29.93S
MINERAL WELLS  SUNNY     83  70  64 S12       29.95R
STEPHENVILLE   SUNNY     82  70  67 S8        30.00R
COMANCHE         N/A     83  69  62 S17G23    29.97R
BROWNWOOD      SUNNY     82  68  61 S14       29.97S
COLEMAN        SUNNY     82  67  61 SW14G22   29.98R
BRADY          SUNNY     81  70  69 S13       29.98S
$$

TXZ143>147-156>162-174-175-021600-
CENTRAL TEXAS

CITY           SKY/WX    TMP DP  RH WIND       PRES   REMARKS
WACO           PTSUNNY   85  74  69 S16       29.97S HX  92
WACO-TSTC      PTSUNNY   84  73  70 SW12      29.97S HX  91
WACO-MCGREGOR  PTSUNNY   84  72  65 SW15      29.98R
HILLSBORO      PTSUNNY   83  72  68 S14       29.99R
CORSICANA      PTSUNNY   85  73  67 S16       30.00R HX  91
MEXIA          PTSUNNY   81  74  78 S14       29.98R
HEARNE           N/A     83  76  78 SE8       29.99R HX  92
CAMERON        PTSUNNY   84  75  73 S14G20    29.98R HX  92
TEMPLE         PTSUNNY   84  72  65 S18       29.96S
KILLEEN        PTSUNNY   84  72  65 S20       29.97R
KILLEEN-SKYLRK PTSUNNY   86  70  58 S14       29.97S HX  90
FORT HOOD      MOSUNNY   86  71  60 S13G20    29.97S HX  91
GATESVILLE     MOSUNNY   82  72  69 S9        30.00R
HAMILTON       SUNNY     84  70  62 S15G24    29.99R
LAMPASAS       MOSUNNY   83  73  72 S13       29.98R
$$

TXZ095>097-106>112-122>126-135>138-148>153-164>167-021600-
EAST TEXAS

CITY           SKY/WX    TMP DP  RH WIND       PRES   REMARKS
PARIS          CLOUDY    81  70  69 SW7       30.04R
SULPHUR SPRNGS CLOUDY    83  72  70 SW12      30.03R
MOUNT PLEASANT PTSUNNY   84  73  68 S10G18    30.04R HX  90
GILMER         PTSUNNY   84  75  74 S6G16     30.03R HX  92
MINEOLA        MOSUNNY   82  75  78 S7        30.02R
TYLER          PTSUNNY   83  74  74 S15       30.02R
LONGVIEW       PTSUNNY   83  73  72 S10       30.02R
MARSHALL       CLOUDY    86  78  76 S8        30.04R HX  98
ATHENS         PTSUNNY   81  73  78 S13       30.00R
PALESTINE      PTSUNNY   83  76  79 S10       30.01S HX  92
JACKSONVILLE   MOSUNNY   83  75  77 S9G17     30.04S HX  91
HENDERSON      CLOUDY    85  74  68 S12       30.03R HX  92
NACOGDOCHES    PTSUNNY   84  75  74 S8        30.02S HX  92
LUFKIN         PTSUNNY   86  77  74 S7        30.01S HX  97
$$

SUPPLEMENTAL OBSERVATIONS (CENTRAL)

CITY           SKY/WX    TMP DP  RH WIND       PRES   REMARKS
CADDO GRASSLND   N/A     84  72  65 S12         N/A
PAT MAYSE LAKE   N/A     81  72  74 SE9         N/A
GREENVILLE       N/A     84  73  70 S10         N/A  HX  91
CEDAR HILL       N/A     86  72  62 S8G17       N/A  HX  92
MCGREGOR         N/A     84  72  65 S13G24      N/A
TEMPLE           N/A     84  72  65 S15         N/A
$$

SUPPLEMENTAL OBSERVATIONS (WEST)

CITY           SKY/WX    TMP DP  RH WIND       PRES   REMARKS
MILLERS CREEK    N/A     86  72  62 S17G23      N/A  HX  92
LBJ GRASSLAND    N/A     84  72  65 S10         N/A
GRANBURY         N/A     84  68  58 S13         N/A
HAMBY            N/A     84  68  58 SW23        N/A
$$

SUPPLEMENTAL OBSERVATIONS (EAST)

CITY           SKY/WX    TMP DP  RH WIND       PRES   REMARKS
CLARKSVILLE      N/A     82  73  74 SW2G15      N/A
TEXARKANA        N/A     84  73  70 S3          N/A  HX  91
LINDEN           N/A     84  73  70 SW3G12      N/A  HX  91
GILMER           N/A     84  73  70 S7G15       N/A  HX  91
HENDERSON        N/A     82  72  69 S13G21      N/A
LUFKIN           N/A     84  75  74 MISG        N/A  HX  92
N SABINE NF      N/A     84  77  79 MISG        N/A  HX  94
S SABINE NF      N/A     84  77  79 SE5         N/A  HX  94
$$

SUPPLEMENTAL OBSERVATIONS ARE A COLLECTION OF AUTOMATED INSTRUMENTS
THAT ARE MAINTAINED BY A VARIETY OF FEDERAL AND STATE AGENCIES.
CERTAIN ELEMENTS...SUCH AS HUMIDITY VALUES AND SUSTAINED WIND
SPEEDS...MAY BE APPROXIMATED.